Torna al catalogo

BREEZE-M R/B

AttivoHEO
NORAD 45987·ROCKET BODY·🇷🇺 Russia

Lanciato Jul 30, 2020 da Baikonur Cosmodrome

Loading…

Prossimi Passaggi (prossime 24 ore)

TLE

AggiornatoSource: Space-Track

Epoca: Sep 14, 2026, 01:21 UTC

1 45987U 20053C   26257.05665357 -.00000284  00000-0  00000-0 0  9997
2 45987   7.6877  75.7891 4343740  83.8723 322.9004  1.03581258 23168

Traccia BREEZE-M R/B in tempo reale con AllMySat

Download on the App Store